Boulder City, NV

4:34 PM PST on December 12, 2017 (GMT -0800)
Boulder City

Weather History for KBVU - March, 2014

Change the Weather History Date:

Sunday, March 2, 2014

  Actual Average (KLAS) Record (KLAS)
Temperature  
Mean Temperature 52 °F -  
Max Temperature 62 °F 64 °F 82 °F (1967)
Min Temperature 41 °F 43 °F 19 °F (1939)
Degree Days  
Heating Degree Days 14    
Growing Degree Days 2 (Base 50)    
Moisture  
Dew Point 40 °F    
Average Humidity 63    
Maximum Humidity 93    
Minimum Humidity 39    
Precipitation  
Precipitation 0.00 in - - ()
Sea Level Pressure  
Sea Level Pressure 30.05 in    
Wind  
Wind Speed 5 mph (SE)    
Max Wind Speed 15 mph    
Max Gust Speed 21 mph    
Visibility 10 miles    
Events Thunderstorm    
Averages and records for this station are not official NWS values.
T = Trace of Precipitation, MM = Missing Value Source: NWS Daily Summary

Daily Weather History Graph

Daily Weather History Graph

Search for Another Location

Airport or City:

Trip Planner

Search our weather history database for the weather conditions in past years. The results will help you decide how hot, cold, wet, or windy it might be!

Date:

Astronomy

Mar. 02, 2014 Rise Set
Actual Time 6:08 AM PST 5:35 PM PST
Civil Twilight 5:42 AM PST 6:01 PM PST
Nautical Twilight 5:12 AM PST 6:30 PM PST
Astronomical Twilight 4:43 AM PST 7:00 PM PST
Moon 6:46 AM PST (3/2) 7:31 PM PST (3/2)
Length of Visible Light 12h 18m
Length of Day
11h 27m
Waxing Crescent, 3% of the Moon is Illuminated
Mar 2
Waxing Crescent
Mar 8
First Quarter
Mar 16
Full
Mar 23
Last Quarter
Mar 30
New

Hourly Weather History & Observations

Time (PST) Temp. Windchill Dew Point Humidity Pressure Visibility Wind Dir Wind Speed Gust Speed Precip Events Conditions
12:15 AM 46.4 °F 43.5 °F 41.0 °F 81% 29.91 in 10.0 mi NE 5.8 mph - N/A   Clear
12:35 AM 46.4 °F - 41.0 °F 81% 29.92 in 10.0 mi Calm Calm - N/A   Clear
12:55 AM 46.4 °F - 41.0 °F 81% 29.93 in 10.0 mi Calm Calm - N/A Thunderstorm Clear
1:15 AM 48.2 °F - 41.0 °F 76% 29.93 in 10.0 mi East 3.5 mph - N/A   Clear
1:35 AM 48.2 °F - 41.0 °F 76% 29.94 in 10.0 mi East 4.6 mph - N/A   Clear
1:55 AM 48.2 °F - 41.0 °F 76% 29.95 in 10.0 mi East 3.5 mph - N/A   Clear
2:15 AM 46.4 °F 45.2 °F 41.0 °F 81% 29.95 in 10.0 mi Variable 3.5 mph - N/A   Clear
2:35 AM 42.8 °F - 39.2 °F 87% 29.96 in 10.0 mi Calm Calm - N/A   Clear
2:55 AM 44.6 °F - 41.0 °F 87% 29.97 in 10.0 mi Calm Calm - N/A   Clear
3:15 AM 44.6 °F - 39.2 °F 81% 29.97 in 10.0 mi Calm Calm - N/A   Clear
3:35 AM 42.8 °F - 39.2 °F 87% 29.98 in 10.0 mi Calm Calm - N/A   Clear
3:55 AM 42.8 °F - 39.2 °F 87% 29.99 in 10.0 mi Calm Calm - N/A   Clear
4:15 AM 42.8 °F - 39.2 °F 87% 30.00 in 10.0 mi Calm Calm - N/A   Clear
4:35 AM 42.8 °F 41.1 °F 39.2 °F 87% 30.00 in 10.0 mi NNE 3.5 mph - N/A   Clear
4:55 AM 42.8 °F 40.1 °F 39.2 °F 87% 30.00 in 10.0 mi ENE 4.6 mph - N/A   Clear
5:15 AM 41.0 °F 39.0 °F 39.2 °F 93% 30.01 in 10.0 mi NNE 3.5 mph - N/A   Clear
5:35 AM 41.0 °F 39.0 °F 39.2 °F 93% 30.02 in 10.0 mi NNE 3.5 mph - N/A   Clear
5:55 AM 41.0 °F 39.0 °F 39.2 °F 93% 30.03 in 10.0 mi NNE 3.5 mph - N/A   Clear
6:15 AM 41.0 °F - 39.2 °F 93% 30.04 in 10.0 mi North - - N/A   Clear
6:35 AM 42.8 °F 41.1 °F 41.0 °F 93% 30.06 in 10.0 mi NNW 3.5 mph - N/A   Clear
6:55 AM 44.6 °F - 42.8 °F 93% 30.06 in 10.0 mi Calm Calm - N/A   Clear
7:15 AM 48.2 °F - 41.0 °F 76% 30.07 in 10.0 mi Calm Calm - N/A   Clear
7:35 AM 48.2 °F - 42.8 °F 82% 30.08 in 10.0 mi Calm Calm - N/A   Clear
7:55 AM 50.0 °F - 44.6 °F 82% 30.09 in 10.0 mi Calm Calm - N/A   Clear
8:15 AM 50.0 °F - 44.6 °F 82% 30.09 in 10.0 mi Calm Calm - N/A   Clear
8:35 AM 51.8 °F - 44.6 °F 76% 30.10 in 10.0 mi Calm Calm - N/A   Clear
8:55 AM 53.6 °F - 44.6 °F 72% 30.10 in 10.0 mi Variable 3.5 mph - N/A   Clear
9:15 AM 55.4 °F - 44.6 °F 67% 30.10 in 10.0 mi SE 4.6 mph - N/A   Clear
9:35 AM 55.4 °F - 44.6 °F 67% 30.11 in 10.0 mi Variable 3.5 mph - N/A   Clear
9:55 AM 57.2 °F - 42.8 °F 59% 30.11 in 10.0 mi South 6.9 mph - N/A   Clear
10:15 AM 57.2 °F - 42.8 °F 59% 30.10 in 10.0 mi Variable 5.8 mph - N/A   Clear
10:35 AM 59.0 °F - 41.0 °F 51% 30.09 in 10.0 mi SE 4.6 mph - N/A   Clear
10:55 AM 59.0 °F - 41.0 °F 51% 30.08 in 10.0 mi SE 6.9 mph - N/A   Partly Cloudy
11:15 AM 60.8 °F - 41.0 °F 48% 30.09 in 10.0 mi SSE 11.5 mph - N/A   Partly Cloudy
11:35 AM 60.8 °F - 41.0 °F 48% 30.08 in 10.0 mi South 10.4 mph - N/A Thunderstorm Clear
11:55 AM 60.8 °F - 41.0 °F 48% 30.07 in 10.0 mi Calm Calm 11.5 mph N/A   Clear
12:15 PM 62.6 °F - 41.0 °F 45% 30.07 in 10.0 mi South 9.2 mph 15.0 mph N/A   Scattered Clouds
12:35 PM 62.6 °F - 41.0 °F 45% 30.07 in 10.0 mi SSW 10.4 mph - N/A Thunderstorm Mostly Cloudy
12:55 PM 62.6 °F - 39.2 °F 42% 30.06 in 10.0 mi Variable 5.8 mph 13.8 mph N/A   Scattered Clouds
1:15 PM 62.6 °F - 39.2 °F 42% 30.05 in 10.0 mi Variable 6.9 mph - N/A   Mostly Cloudy
1:35 PM 62.6 °F - 41.0 °F 45% 30.05 in 10.0 mi SSE 8.1 mph - N/A   Overcast
1:55 PM 62.6 °F - 41.0 °F 45% 30.05 in 10.0 mi SE 9.2 mph - N/A   Unknown
2:15 PM 62.6 °F - 39.2 °F 42% 30.05 in 10.0 mi SE 11.5 mph 19.6 mph N/A   Overcast
2:35 PM 62.6 °F - 39.2 °F 42% 30.05 in 10.0 mi SSE 11.5 mph 17.3 mph N/A Thunderstorm Overcast
2:55 PM 62.6 °F - 37.4 °F 39% 30.05 in 10.0 mi SSE 15.0 mph - N/A Thunderstorm Overcast
3:15 PM 62.6 °F - 37.4 °F 39% 30.05 in 10.0 mi SSE 15.0 mph - N/A   Overcast
3:35 PM 62.6 °F - 37.4 °F 39% 30.05 in 10.0 mi SSE 15.0 mph - N/A   Overcast
3:55 PM 62.6 °F - 39.2 °F 42% 30.05 in 10.0 mi SSE 15.0 mph - N/A   Overcast
4:15 PM 60.8 °F - 39.2 °F 45% 30.05 in 10.0 mi SSE 15.0 mph - N/A   Overcast
4:35 PM 60.8 °F - 41.0 °F 48% 30.06 in 10.0 mi SSE 12.7 mph 20.7 mph N/A   Overcast
4:55 PM 60.8 °F - 41.0 °F 48% 30.06 in 10.0 mi South 12.7 mph - N/A   Overcast
5:15 PM 60.8 °F - 41.0 °F 48% 30.07 in 10.0 mi South 12.7 mph - N/A Thunderstorm Overcast
5:35 PM 60.8 °F - 39.2 °F 45% 30.08 in 10.0 mi South 10.4 mph - N/A   Mostly Cloudy
5:55 PM 59.0 °F - 39.2 °F 48% 30.09 in 10.0 mi SSE 13.8 mph - N/A   Scattered Clouds
6:15 PM 59.0 °F - 39.2 °F 48% 30.09 in 10.0 mi SSE 12.7 mph - N/A   Scattered Clouds
6:35 PM 59.0 °F - 39.2 °F 48% 30.10 in 10.0 mi SSE 8.1 mph - N/A   Partly Cloudy
6:55 PM 59.0 °F - 39.2 °F 48% 30.11 in 10.0 mi SSE 9.2 mph - N/A   Partly Cloudy
7:15 PM 59.0 °F - 39.2 °F 48% 30.11 in 10.0 mi SSE 9.2 mph - N/A   Mostly Cloudy
7:35 PM 57.2 °F - 39.2 °F 51% 30.11 in 10.0 mi South 5.8 mph - N/A   Mostly Cloudy
7:55 PM 57.2 °F - 39.2 °F 51% 30.11 in 10.0 mi SSE 6.9 mph - N/A   Partly Cloudy
8:15 PM 57.2 °F - 39.2 °F 51% 30.11 in 10.0 mi SSE 6.9 mph - N/A   Clear
8:35 PM 55.4 °F - 39.2 °F 54% 30.12 in 10.0 mi ESE 4.6 mph - N/A   Clear
8:55 PM 57.2 °F - 39.2 °F 51% 30.11 in 10.0 mi ESE 5.8 mph - N/A   Clear
9:55 PM 55.4 °F - 39.2 °F 54% 30.12 in 10.0 mi Calm Calm - N/A   Clear
10:15 PM 51.8 °F - 39.2 °F 62% 30.12 in 10.0 mi Calm Calm - N/A   Clear
10:35 PM 53.6 °F - 39.2 °F 58% 30.11 in 10.0 mi Calm Calm - N/A   Clear
10:55 PM 53.6 °F - 39.2 °F 58% 30.11 in 10.0 mi Calm Calm - N/A   Clear
11:15 PM 51.8 °F - 39.2 °F 62% 30.12 in 10.0 mi North 4.6 mph - N/A   Clear
11:35 PM 50.0 °F - 39.2 °F 66% 30.11 in 10.0 mi NW 3.5 mph - N/A   Clear
11:55 PM 50.0 °F - 39.2 °F 66% 30.11 in 10.0 mi NNW 4.6 mph - N/A   Clear